Miramar MCAS, CA

2:18 PM PDT on March 26, 2017 (GMT -0700)
Miramar Marine Corps Air Station-Mitscher

Weather History for KNKX - February, 2014

Change the Weather History Date:

Sunday, February 16, 2014

  Actual Average Record
Temperature  
Mean Temperature 60 °F -  
Max Temperature 75 °F 63 °F 93 °F (2016)
Min Temperature 46 °F 44 °F 37 °F (2008)
Degree Days  
Heating Degree Days 4    
Growing Degree Days 10 (Base 50)    
Moisture  
Dew Point 47 °F    
Average Humidity 74    
Maximum Humidity 97    
Minimum Humidity 17    
Precipitation  
Precipitation 0.00 in - - ()
Sea Level Pressure  
Sea Level Pressure 30.01 in    
Wind  
Wind Speed 5 mph (NNW)    
Max Wind Speed 9 mph    
Max Gust Speed -    
Visibility 7 miles    
Events Fog    
Averages and records for this station are not official NWS values.
T = Trace of Precipitation, MM = Missing Value Source: NWS Daily Summary

Daily Weather History Graph

Daily Weather History Graph

Search for Another Location

Airport or City:

Trip Planner

Search our weather history database for the weather conditions in past years. The results will help you decide how hot, cold, wet, or windy it might be!

Date:

Astronomy

Feb. 16, 2014 Rise Set
Actual Time 6:30 AM PST 5:34 PM PST
Civil Twilight 6:05 AM PST 6:00 PM PST
Nautical Twilight 5:36 AM PST 6:29 PM PST
Astronomical Twilight 5:07 AM PST 6:57 PM PST
Moon 7:27 PM PST (2/16) 7:10 AM PST (2/16)
Length of Visible Light 11h 54m
Length of Day
11h 04m
Full, 97% of the Moon is Illuminated
Feb 16
Full
Feb 22
Last Quarter
Mar 1
New
Mar 8
First Quarter
Mar 16
Full

Hourly Weather History & Observations

Time (PST) Temp. Dew Point Humidity Pressure Visibility Wind Dir Wind Speed Gust Speed Precip Events Conditions
12:55 AM 51.1 °F 39.0 °F 63% 29.98 in 10.0 mi WNW 5.8 mph - N/A   Mostly Cloudy
1:39 AM 53.1 °F 48.0 °F 83% 30.00 in 10.0 mi North 5.8 mph - N/A   Scattered Clouds
1:49 AM 55.4 °F 53.6 °F 94% 30.00 in 0.8 mi NNW 5.8 mph - N/A   Mist
1:52 AM 55.4 °F 53.6 °F 94% 30.00 in 0.2 mi NW 8.1 mph - N/A Fog Fog
1:55 AM 55.9 °F 54.0 °F 93% 29.99 in 0.2 mi North 6.9 mph - N/A Fog Fog
2:55 AM 52.0 °F 50.0 °F 93% 29.97 in 0.2 mi NW 3.5 mph - N/A Fog Fog
3:55 AM 46.9 °F 46.0 °F 97% 29.97 in 0.5 mi ESE 4.6 mph - N/A Fog Fog
4:55 AM 48.9 °F 46.9 °F 93% 29.99 in 6.0 mi West 6.9 mph - N/A   Mostly Cloudy
5:52 AM 53.6 °F 51.8 °F 94% 30.01 in 0.2 mi North 4.6 mph - N/A Fog Fog
5:55 AM 53.1 °F 51.1 °F 93% 30.00 in 0.2 mi North 3.5 mph - N/A Fog Fog
6:55 AM 51.1 °F 48.9 °F 92% 30.02 in 0.2 mi NNE 3.5 mph - N/A Fog Fog
7:55 AM 52.0 °F 48.9 °F 89% 30.03 in 7.0 mi Calm Calm - N/A   Mostly Cloudy
8:55 AM 66.0 °F 39.9 °F 38% 30.02 in 10.0 mi Calm Calm - N/A   Mostly Cloudy
9:55 AM 66.9 °F 46.0 °F 47% 30.04 in 10.0 mi WNW 6.9 mph - N/A   Mostly Cloudy
10:55 AM 64.9 °F 50.0 °F 58% 30.04 in 10.0 mi WNW 4.6 mph - N/A   Mostly Cloudy
11:55 AM 66.9 °F 48.9 °F 52% 30.04 in 10.0 mi WNW 9.2 mph - N/A   Mostly Cloudy
12:55 PM 69.1 °F 46.0 °F 44% 30.00 in 10.0 mi NNW 5.8 mph - N/A   Mostly Cloudy
1:55 PM 75.0 °F 37.0 °F 25% 29.99 in 10.0 mi NW 8.1 mph - N/A   Mostly Cloudy
2:55 PM 75.9 °F 28.0 °F 17% 29.97 in 10.0 mi NW 4.6 mph - N/A   Mostly Cloudy
3:55 PM 73.9 °F 36.0 °F 25% 29.98 in 10.0 mi West 6.9 mph - N/A   Mostly Cloudy
4:55 PM 66.9 °F 46.9 °F 49% 29.99 in 10.0 mi NNW 5.8 mph - N/A   Mostly Cloudy
5:55 PM 62.1 °F 52.0 °F 70% 30.01 in 10.0 mi NW 9.2 mph - N/A   Mostly Cloudy
6:55 PM 57.9 °F 53.1 °F 84% 30.03 in 10.0 mi North 5.8 mph - N/A   Scattered Clouds
7:49 PM 53.6 °F 51.8 °F 94% 30.04 in 9.0 mi West 4.6 mph - N/A   Scattered Clouds
7:55 PM 54.0 °F 51.1 °F 90% 30.04 in 9.0 mi WNW 3.5 mph - N/A   Scattered Clouds
8:55 PM 54.0 °F 53.1 °F 97% 30.05 in 6.0 mi ENE 3.5 mph - N/A   Partly Cloudy
9:55 PM 51.1 °F 46.9 °F 86% 30.06 in 10.0 mi Calm Calm - N/A   Partly Cloudy
10:22 PM 51.1 °F 50.0 °F 96% 30.07 in 1.8 mi Calm Calm - N/A   Clear
10:55 PM 48.9 °F 46.0 °F 90% 30.06 in 10.0 mi NNE 4.6 mph - N/A   Partly Cloudy
11:55 PM 50.0 °F 44.1 °F 80% 30.04 in 10.0 mi Calm Calm - N/A   Partly Cloudy